Printer-friendly version

IAU Minor Planet Center

Minor Planet Center

MPEC 2007-B59 : 2007 BJ29

The following Minor Planet Electronic Circular may be linked-to from your own Web pages, but must not otherwise be redistributed electronically.


Read MPEC 2007-B58 Read MPEC 2007-B60


M.P.E.C. 2007-B59                                Issued 2007 Jan. 26, 20:34 UT

     The Minor Planet Electronic Circulars contain information on unusual
         minor planets and routine data on comets.  They are published
   on behalf of Commission 20 of the International Astronomical Union by the
          Minor Planet Center, Smithsonian Astrophysical Observatory,
                          Cambridge, MA 02138, U.S.A.

             Prepared using the Tamkin Foundation Computer Network

                              MPC@CFA.HARVARD.EDU
          URL http://cfa-www.harvard.edu/iau/mpc.html  ISSN 1523-6714

                                   2007 BJ29

Observations:
     K07B29J* C2007 01 25.10134 04 58 41.88 -24 19 05.9          18.3   EB059704
     K07B29J  C2007 01 25.11378 04 58 48.20 -24 17 25.7          18.1   EB059704
     K07B29J  C2007 01 25.12696 04 58 54.94 -24 15 39.8          18.0   EB059704
     K07B29J  C2007 01 25.13941 04 59 01.27 -24 13 59.8          18.5   EB059704
     K07B29J  C2007 01 26.14041 05 07 10.40 -22 05 33.7          18.3   EB059704
     K07B29J  C2007 01 26.15270 05 07 15.89 -22 04 03.6          18.2   EB059704
     K07B29J  C2007 01 26.16492 05 07 21.30 -22 02 34.0          18.3   EB059704
     K07B29J  C2007 01 26.17741 05 07 26.82 -22 01 02.4          18.2   EB059704
     K07B29J  C2007 01 26.18963 05 07 32.26 -21 59 32.7          18.3   EB059704

Observer details:
704 Lincoln Laboratory ETS, New Mexico.  Observers M. Bezpalko, D. Torres,
    R. Kracke, G. Spitz, J. Kistler.  Measurers J. Stuart, S. Scruggs.  1.0-m
    f/2.15 reflector + CCD.

Orbital elements:
2007 BJ29                                           PHA, Earth MOID = 0.0214 AU
Epoch 2007 Apr. 10.0 TT = JDT 2454200.5                 MPC
M  31.95638              (2000.0)            P               Q
n   0.25782355     Peri.  118.57764     +0.98433560     -0.01627583
a   2.4448618      Node   242.83444     -0.03908461     +0.95080892
e   0.8479852      Incl.   11.38017     +0.17191807     +0.30935010
P   3.82           H   18.2           G   0.15           U   9
Residuals in seconds of arc
070125 704  0.2+  0.0     070125 704  0.0   0.1-    070126 704  0.0   0.1-
070125 704  0.3-  0.1+    070126 704  0.1-  0.2+    070126 704  0.2-  0.1-
070125 704  0.0   0.0     070126 704  0.2+  0.0     070126 704  0.2+  0.1-

Ephemeris:
2007 BJ29                a,e,i = 2.44, 0.85, 11                  q = 0.3717
Date    TT    R. A. (2000) Decl.     Delta      r     Elong.  Phase     V
2007 01 20    03 51.59   -38 21.2    0.189    1.022    96.4    73.0    17.2
2007 01 30    05 30.86   -15 25.7    0.317    1.180   121.1    45.6    17.8
2007 02 09    06 04.82   -05 25.6    0.485    1.329   125.6    37.1    18.7
2007 02 19    06 24.77   -00 12.3    0.672    1.470   123.4    34.2    19.6
2007 03 01    06 40.36   +02 58.9    0.871    1.603   118.8    32.8    20.3
2007 03 11    06 54.34   +05 05.3    1.080    1.730   113.1    31.9    20.9
2007 03 21    07 07.74   +06 31.6    1.297    1.851   106.9    31.0    21.4
2007 03 31    07 20.97   +07 29.9    1.520    1.966   100.6    30.0    21.9

Timothy B. Spahr             (C) Copyright 2007 MPC           M.P.E.C. 2007-B59

Read MPEC 2007-B58 Read MPEC 2007-B60


Our Web policy. Index to the CBAT/MPC/ICQ pages.


Valid HTML 4.01!